Location: Unspecified
(36.5600°N, 136.6600°E)
Time: 09:04:48
(UTC+09:00)

ACS3 Solar Sail - Visible Passes

Search period start: 20 June 2024 00:00
Search period end: 30 June 2024 00:00
Orbit: 992 x 1024 km, 97.4° (Epoch: 19 June)

Date Brightness Start Highest point End Pass type
(mag) Time Alt. Az. Time Alt. Az. Time Alt. Az.
20 Jun 6.1 20:19:21 13° ESE 20:23:26 24° ENE 20:28:15 10° NNE visible
20 Jun 5.5 22:04:42 32° SSW 22:07:10 48° W 22:13:10 10° NNW visible
21 Jun 5.3 20:54:08 24° SE 20:57:32 46° ENE 21:03:26 10° N visible
21 Jun 6.4 22:39:29 20° WSW 22:41:48 24° W 22:46:45 10° NW visible
22 Jun 6.7 19:46:10 10° E 19:48:38 13° ENE 19:51:08 10° NE visible
22 Jun 4.8 21:28:56 35° SSE 21:31:50 89° ENE 21:38:05 10° N visible
22 Jun 7.1 23:14:57 10° WSW 23:16:39 11° W 23:18:20 10° WNW visible
23 Jun 6.1 20:18:23 13° ESE 20:22:34 25° ENE 20:27:27 10° NNE visible
23 Jun 5.5 22:03:44 31° SSW 22:06:19 47° W 22:12:17 10° NNW visible
24 Jun 5.2 20:53:11 24° SE 20:56:41 48° ENE 21:02:35 10° N visible
24 Jun 6.5 22:38:32 19° WSW 22:40:58 23° W 22:45:49 10° NW visible
25 Jun 6.7 19:45:05 10° E 19:47:45 13° ENE 19:50:26 10° NE visible
25 Jun 4.8 21:27:59 33° SSE 21:30:58 88° WSW 21:37:14 10° NNW visible
25 Jun 7.2 23:14:38 10° W 23:15:49 11° W 23:17:01 10° WNW visible
26 Jun 6.0 20:17:27 13° ESE 20:21:41 26° ENE 20:26:38 10° NNE visible
26 Jun 5.6 22:02:47 29° SSW 22:05:28 45° W 22:11:24 10° NNW visible
27 Jun 5.2 20:52:14 24° SE 20:55:48 49° ENE 21:01:45 10° N visible
27 Jun 6.5 22:37:34 18° SW 22:40:08 23° W 22:44:53 10° NW visible
28 Jun 6.7 19:44:02 10° E 19:46:52 14° ENE 19:49:43 10° NE visible
28 Jun 4.8 21:27:02 32° S 21:30:08 86° W 21:36:22 10° NNW visible
29 Jun 6.0 20:16:30 13° ESE 20:20:48 27° ENE 20:25:50 10° NNE visible
29 Jun 5.6 22:01:51 28° SSW 22:04:37 43° W 22:10:30 10° NNW visible
